[ hide orbit diagram ]
For accurate long-term ephemerides, please instead use our Horizons system.This orbit viewer was implemented using two-body methods, and hence should not be used for determining accurate long-term trajectories (over several years or decades) or planetary encounter circumstances.
Orbital Elements at Epoch 2459000.5 (2020-May-31.0) TDB
Reference: JPL 11 (heliocentric ecliptic J2000)
Element | Value | Uncertainty (1-sigma) | Units |
e | .2014429104465282 | 5.2097e-08 | |
a | 2.77891241546922 | 1.4597e-08 | au |
q | 2.219120210621109 | 1.4472e-07 | au |
i | 7.954731613272984 | 4.5645e-06 | deg |
node | 199.9934813947237 | 3.6126e-05 | deg |
peri | 59.87814876794152 | 3.8884e-05 | deg |
M | 354.1256116900246 | 1.1016e-05 | deg |
tp | 2459028.110283483179 (2020-Jun-27.61028348) | 5.173e-05 | TDB |
period | 1692.040350323095 4.63 | 1.3332e-05 3.65e-08 | d yr |
n | .2127608835872371 | 1.6763e-09 | deg/d |
Q | 3.338704620317332 | 1.7537e-08 | au |
|
| | Orbit Determination Parameters
Additional Information
|
[ show covariance matrix ]
Physical Parameter Table
Parameter |
Symbol |
Value |
Units |
Sigma |
Reference |
Notes |
absolute magnitude |
H |
16.5 |
|
n/a |
MPO433796 |
|
|
277829 (2006 HL25) Discovered 2006-Apr-20 by Spacewatch at Kitt Peak |
Reference: 20110517/Numbers.arc | Last Updated: 2011-05-20 |
|
[ show close-approach data ]
|